Regional Weather Roundup
Issued by NWS

Home | Current Version | Previous Version | Graphics & Text | Print | Product List | Glossary On
Versions: 1 2 3 4 5 6 7 8 9 10 11 12 13 14 15 16 17 18 19 20 21 22 23 24 25 26 27 28 29 30 31 32 33 34 35 36 37 38 39 40 41 42 43 44 45 46 47 48 49 50
000
ASUS44 KMEG 211010
RWRTN
TENNESSEE HOURLY STATE WEATHER ROUNDUP
NATIONAL WEATHER SERVICE MEMPHIS TN
500 AM CDT FRI JUL 21 2017

TNZ002-004-019-021-049-052-054-088>092-211100-
WEST TENNESSEE

CITY           SKY/WX    TMP DP  RH WIND       PRES   REMARKS
MEMPHIS INTL   CLEAR     80  76  87 CALM      30.01S
NWS MEMPHIS      N/A     77 N/A N/A MISG        N/A
JACKSON        CLEAR     73  72  96 CALM      30.02S FOG
SOMERVILLE       N/A     75  73  94 CALM      30.01S FOG
COVINGTON      CLEAR     73  73 100 CALM      30.01S FOG
UNION CITY       N/A     73  73 100 CALM      30.00S
BOLIVAR        PTCLDY    73  72  94 CALM      30.02S
PARIS          MOCLDY    73  73 100 CALM      30.02R
HUNTINGDON     MOCLDY    75  75 100 CALM      30.01S FOG
SELMER         CLEAR     73  72  94 CALM      30.03S
SAVANNAH       CLEAR     73  72  94 CALM      30.02R FOG
$$

TNZ008-025-027-028-033-062-065-066-211100-
NORTH MIDDLE TENNESSEE

CITY           SKY/WX    TMP DP  RH WIND       PRES   REMARKS
NASHVILLE      CLOUDY    76  73  91 CALM      30.04R
PORTLAND         N/A     73  72  94 CALM      30.04R
CLARKSVILLE    CLEAR     73  72  96 CALM      30.03R FOG
SMYRNA         CLOUDY    73  72  96 CALM      30.05R
COOKEVILLE     FOG       70  70 100 CALM      30.05R VSB 1/2
GALLATIN       CLEAR     73  72  94 CALM      30.06S FOG
CROSSVILLE     CLEAR     68  67  96 CALM      30.11R FOG
$$

TNZ061-075-076-078-094-096-097-211100-
SOUTH MIDDLE TENNESSEE

CITY           SKY/WX    TMP DP  RH WIND       PRES   REMARKS
FAYETTEVILLE   CLEAR     73  73 100 CALM      30.04S FOG
TULLAHOMA      CLEAR     72  70  94 CALM      30.07R
WINCHESTER     CLEAR     72  70  94 CALM      30.06R
MCMINNVILLE    CLOUDY    72  72 100 CALM      30.06R VSB 0
COLUMBIA       PTCLDY    73  73 100 CALM      30.02S FOG
SHELBYVILLE    PTCLDY    73  72  94 CALM      30.05R FOG
$$

TNZ017-018-042-046-047-211100-
NORTHEAST TENNESSEE

CITY           SKY/WX    TMP DP  RH WIND       PRES   REMARKS
TRI CITIES     PTCLDY    67  66  97 CALM      30.09R
ELIZABETHTON   PTCLDY    68  64  88 CALM      30.10R
$$

TNZ012-013-036-069-073-074-211100-
CENTRAL EAST TENNESSEE

CITY           SKY/WX    TMP DP  RH WIND       PRES   REMARKS
KNOXVILLE      PTCLDY    73  67  81 NE3       30.04R
OAK RIDGE      MOCLDY    73  70  90 CALM      30.07R
DOWNTOWN KNOXV   N/A     70  70 100 CALM      30.05R FOG
GATLINBURG     CLEAR     68  66  94 CALM      30.05S
MORRISTOWN     MOCLDY    72  68  88 CALM      30.06S
JACKSBORO      FOG       70  70 100 CALM      30.10R VSB 1
$$

TNZ083-085-099-211100-
SOUTHEAST TENNESSEE

CITY           SKY/WX    TMP DP  RH WIND       PRES   REMARKS
CHATTANOOGA    CLEAR     75  73  93 CALM      30.04R
$$

SKY/WX REPORTED AS FAIR MEANS FEW OR NO CLOUDS BELOW
12 THOUSAND FEET.




USA.gov is the U.S. government's official web portal to all federal, state and local government web resources and services.